Chillicothe, MO

2:08 AM CDT on October 15, 2019 (GMT -0500)
Chillicothe

Weather History for KCDJ - August, 2019

Change the Weather History Date:

Sunday, August 18, 2019

  Actual Average (KIRK) Record (KIRK)
Temperature  
Mean Temperature 76 °F -  
Max Temperature 86 °F 86 °F 106 °F (1936)
Min Temperature 69 °F 63 °F 46 °F (2012)
Cooling Degree Days 12    
Growing Degree Days 26 (Base 50)    
Moisture  
Dew Point 70 °F    
Average Humidity 81    
Maximum Humidity 97    
Minimum Humidity 67    
Precipitation  
Precipitation 0.52 in - - ()
Sea Level Pressure  
Sea Level Pressure 29.82 in    
Wind  
Wind Speed 7 mph (SSE)    
Max Wind Speed 17 mph    
Max Gust Speed 34 mph    
Averages and records for this station are not official NWS values.
T = Trace of Precipitation, MM = Missing Value Source: NWS Daily Summary

Daily Weather History Graph

Daily Weather History Graph

Search for Another Location

Airport or City:

Astronomy

Aug. 18, 2019 Rise Set
Actual Time 6:28 AM CDT 8:06 PM CDT
Civil Twilight 6:00 AM CDT 8:35 PM CDT
Nautical Twilight 5:25 AM CDT 9:09 PM CDT
Astronomical Twilight 4:48 AM CDT 9:46 PM CDT
Moon 10:02 PM CDT (8/18) 9:14 AM CDT (8/18)
Length of Visible Light 14h 35m
Length of Day
13h 37m
Waning Gibbous, 91% of the Moon is Illuminated
Aug 18
Waning Gibbous
Aug 23
Last Quarter
Aug 30
New
Sep 5
First Quarter
Sep 13
Full

Hourly Weather History & Observations

Time (CDT) Temp. Heat Index Dew Point Humidity Pressure Visibility Wind Dir Wind Speed Gust Speed Precip Events Conditions
12:52 AM 77.0 °F - 71.1 °F 82% 29.75 in - SSE 8.1 mph - N/A   Unknown
1:52 AM 78.1 °F - 72.0 °F 81% 29.72 in - SSE 6.9 mph - N/A   Unknown
2:52 AM 77.0 °F - 72.0 °F 84% 29.72 in - Calm Calm - N/A   Unknown
3:52 AM 75.9 °F - 73.0 °F 91% 29.81 in - Variable 6.9 mph - 0.14 in   Unknown
4:52 AM 75.0 °F - 73.0 °F 94% 29.75 in - SSE 9.2 mph 17.3 mph 0.17 in   Unknown
5:52 AM 73.9 °F - 64.0 °F 71% 29.70 in - South 12.7 mph 24.2 mph 0.02 in   Unknown
6:52 AM 72.0 °F - 66.0 °F 81% 29.76 in - NNE 5.8 mph - N/A   Unknown
7:52 AM 69.1 °F - 66.0 °F 90% 29.86 in - NE 17.3 mph 34.5 mph 0.19 in   Unknown
8:52 AM 69.1 °F - 64.9 °F 87% 29.88 in - North - - N/A   Unknown
9:52 AM 71.1 °F - 66.0 °F 84% 29.87 in - Variable 5.8 mph - N/A   Unknown
10:52 AM 73.0 °F - 66.0 °F 79% 29.87 in - ESE 8.1 mph 16.1 mph N/A   Unknown
11:52 AM 75.9 °F - 66.9 °F 74% 29.86 in - SSE 8.1 mph - N/A   Unknown
12:52 PM 79.0 °F - 69.1 °F 72% 29.84 in - Variable 4.6 mph - N/A   Unknown
1:52 PM 81.0 °F 84.4 °F 70.0 °F 69% 29.85 in - South 9.2 mph - N/A   Unknown
2:52 PM 82.0 °F 86.3 °F 71.1 °F 69% 29.82 in - South 11.5 mph 23.0 mph N/A   Unknown
3:52 PM 82.9 °F 88.0 °F 72.0 °F 69% 29.82 in - South 9.2 mph - N/A   Unknown
4:52 PM 84.0 °F 90.2 °F 73.0 °F 69% 29.82 in - South 8.1 mph - N/A   Unknown
5:52 PM 84.9 °F 91.4 °F 73.0 °F 67% 29.82 in - Variable 3.5 mph - N/A   Unknown
7:52 PM 80.1 °F 85.1 °F 75.0 °F 85% 29.84 in - Calm Calm - N/A   Unknown
8:52 PM 77.0 °F - 75.0 °F 94% 29.86 in - Calm Calm - N/A   Unknown
9:52 PM 75.9 °F - 75.0 °F 97% 29.88 in - South 3.5 mph - N/A   Unknown
10:52 PM 75.9 °F - 73.9 °F 94% 29.89 in - WNW 6.9 mph - N/A   Unknown
11:52 PM 78.1 °F - 72.0 °F 81% 29.90 in - Calm Calm - N/A   Unknown